CZ-6A DEB, 61388

Orbit data source: Space-Track

CZ-6A DEB, 61388 is space debris in LEO originally from a launch on Tue, 06 Aug 2024 UTC launched from the Taiyaun Space Center, China (TSC). Debris objects in space refer to the collection of defunct objects orbiting the Earth. Examples of debris include non-operational satellites, rocket bodies, and fragments generated from explosions, collisions, or faulty payload assembly.

Loading next visibility...
Identifier
61388, 2024-140XD
Orbit
LEO
Country
Flag of CNCN / PRC
Related business
Manufacturer
SAST
Mission
Spacecraft
Bus & Motor
Unknown
Mass
Unknown
Launch date (UTC)
2024-08-06 (2 years ago)
Launch vehicle
Unknown
Launch site
Taiyaun Space Center, China (TSC)
Object type
Payload
Rocket body
Debris
Shape & HBR
Unknown shape, 0.1 m
Radar Cross Section
Small (<0.1 m²)

Expand to show TLE details & history
Last TLE update: 18 hours ago

TLE from 18 hours ago
0 CZ-6A DEB
1 61388U 24140XD  26171.24052297  .00001325  00000-0  33818-3 0  9992
2 61388  88.8408 257.5688 0067460 297.2538  62.1806 14.48630807 94427
Epoch: 2026-06-20T05:46Z
TLE epoch observation values (Epoch: 2026-06-20T05:46:21.184Z)
Latitude
-0.00004°
Longitude
-97.47745°
Altitude
711.088 km
Speed
7.512 km/s
True Right ascension
17h 10m 16s
True Declination
0° 00' 00"
Sunlit
Object was in full shadow at epoch
Visualization orbit readout
Latitude
Unknown
Longitude
Unknown
Altitude
Unknown
Speed
Unknown
Apparent Right ascension
Unknown
Apparent Declination
Unknown
Sunlit
N/A
Visualization observer readout
Local Sidereal Time
10:18:00
Azimuth
Unknown
Elevation
Unknown
Doppler factor
Unknown
Orbital elements
Apogee altitude
774.967 km
Perigee altitude
679.104 km
Semi-major axis
7,105.172 km
Eccentricity
0.00675
Inclination
88.8408°
RAAN
257.5688°
Arg. of periapsis
297.2538°
True anomaly
62.86697°
Mean anomaly
62.1806°
Eccentric anomaly
62.52352°
Mean motion
3.62394 °/min
Orbital period
99.34 mins
BSTAR
0.00033818
Loading maneuver chart data...
Computing Atmospheric mass density...
Loading historical data...
Loading historical data...
Loading historical data...
Loading historical data...
Loading historical data...
Loading historical data...
Loading historical data...

Documentation

Showing up to 5 results
|